Terminal Aerodrome Forecast
Issued by NWS

Home | Current Version | Previous Version | Text Only | Print | Product List | Glossary On
Versions: 1 2 3 4 5 6 7 8 9 10 11 12 13 14 15 16 17 18 19 20 21 22 23 24 25 26 27 28
453
FTAK31 PAFA 301131
TAFAOR
TAF
PAOR 301131Z 3012/0112 VRB03KT P6SM SCT080 SCT120
     FM302100 11010KT P6SM SCT100 BKN200
     FM010300 10006KT P6SM SCT050 BKN100=

USA.gov is the U.S. government's official web portal to all federal, state and local government web resources and services.